Location: St. Louis
(38.6270°N, 90.1994°W)
Time: 00:05:44
(UTC-05:00)

SPROUT - Visible Passes

Search period start: 10 August 2022 00:00
Search period end: 20 August 2022 00:00
Orbit: 588 x 598 km, 97.9° (Epoch: 09 August)

Date Brightness Start Highest point End Pass type
(mag) Time Alt. Az. Time Alt. Az. Time Alt. Az.
10 Aug ? 01:36:26 18° N 01:36:26 18° N 01:37:38 10° N visible
11 Aug ? 01:45:43 18° N 01:45:43 18° N 01:46:49 10° N visible
12 Aug ? 01:54:59 17° N 01:54:59 17° N 01:55:57 10° N visible
13 Aug ? 02:04:15 15° NNW 02:04:15 15° NNW 02:05:02 10° NNW visible
14 Aug ? 02:13:31 14° NNW 02:13:31 14° NNW 02:14:05 10° NNW visible
15 Aug ? 02:22:46 12° NNW 02:22:46 12° NNW 02:23:04 10° NNW visible
16 Aug ? 00:55:24 10° NNE 00:55:24 10° NNE 00:55:25 10° NNE visible
16 Aug ? 02:32:01 10° NNW 02:32:01 10° NNW 02:32:01 10° NNW visible
17 Aug ? 01:04:39 11° NNE 01:04:39 11° NNE 01:04:52 10° NNE visible
18 Aug ? 01:13:53 12° NNE 01:13:53 12° NNE 01:14:12 10° NNE visible
19 Aug ? 01:23:07 12° NNE 01:23:07 12° NNE 01:23:27 10° N visible
